Flag for Germany Weather past 2 weeks in Bad Homburg, Hesse, Germany

Now
66 °F

Overcast.


Feels Like: 66 °F
Forecast: 50 / 62 °F
Wind: 3 mph from Southwest

Location: Frankfurt / M-Flughafen

Current Time: Aug 22, 2014 at 8:33:02 PM

Latest Report: Aug 22, 2014 at 8:00 PM


Visibility: 31 mi

Pressure: 29.91 "Hg

Humidity: 44%

Dew point: 43 °F

Location of Bad HomburgLocation

Historic Weather in Bad Homburg — Graph

°F

Bad Homburg temperature yesterday

Maximum temperature yesterday: 67 °F (at 6:00 PM)
Minimum temperature yesterday: 49 °F (at 7:00 AM)
Average temperature yesterday: 58 °F

Past Weeks' High & Low Weather Summary

 TemperatureHumidityPressure
High82 °F (Aug 8, 3:00 PM)96% (Aug 19, 7:00 AM)30.11 "Hg (Aug 19, 7:00 AM)
Low46 °F (Aug 22, 4:00 AM)32% (Aug 22, 5:00 PM)29.64 "Hg (Aug 13, 5:00 PM)
Average63 °F71%29.91 "Hg
* Reported Aug 7 7:00 PM — Aug 22 7:00 PM, Bad Homburg, Weather by CustomWeather, © 2014

Note: Actual official high and low records may vary slightly from our data, if they occured in-between our weather recording intervals... More about our weather records

Advertising

Bad Homburg weather history for previous 24 hours

 ConditionsComfort  
Time TempWeatherWind HumidityBarometerVisibility
7:00 PM
Aug 22
66 °FOvercast.5 mph41%29.91 "Hg31 mi
6:00 PM67 °FOvercast.6 mph37%29.92 "Hg31 mi
5:00 PM69 °FPartly sunny.7 mph32%29.93 "Hg31 mi
4:00 PM68 °FOvercast.8 mph37%29.94 "Hg31 mi
3:00 PM67 °FOvercast.7 mph37%29.95 "Hg31 mi
2:00 PM67 °FOvercast.5 mph43%29.96 "Hg25 mi
1:00 PM65 °FOvercast.6 mph46%29.97 "Hg25 mi
12:00 PM64 °FOvercast.5 mph55%29.98 "Hg22 mi
11:00 AM60 °FPartly sunny.3 mph67%30.00 "Hg19 mi
10:00 AM56 °FOvercast.3 mph72%30.00 "Hg19 mi
9:00 AM54 °FOvercast.3 mph79%30.00 "Hg19 mi
8:00 AM50 °FScattered clouds.2 mph85%30.01 "Hg19 mi
7:00 AM49 °FPassing clouds.2 mph85%30.01 "Hg19 mi
6:00 AM50 °FPassing clouds.3 mph82%30.01 "Hg17 mi
4:00 AM46 °FPassing clouds.1 mph89%30.02 "Hg19 mi
3:00 AM48 °FPassing clouds.1 mph87%30.02 "Hg19 mi
2:00 AM47 °FPassing clouds.1 mph88%30.03 "Hg19 mi
1:00 AM49 °FPassing clouds.1 mph86%30.03 "Hg22 mi
12:00 AM51 °FPassing clouds.1 mph81%30.03 "Hg22 mi
11:00 PM
Aug 21
53 °FPassing clouds.1 mph78%30.03 "Hg25 mi
10:00 PM57 °FPassing clouds.1 mph63%30.02 "Hg28 mi
9:00 PM62 °FPassing clouds.3 mph46%30.00 "Hg34 mi
8:00 PM64 °FPassing clouds.5 mph41%29.99 "Hg34 mi
Weather by CustomWeather, © 2014

See weather overviewHow to use our weather pages